Location: Czu?ow-Papiernia
(50.1584°N, 19.0139°E)
Time: 17:40:27
(UTC+00:00)

Daily predictions for brighter satellites

Satellite Brightness Start Highest point End
(mag) Time Altitude Azimuth Time Altitude Azimuth Time Altitude Azimuth
Cosmos 2074 Rocket 4.2 17:00:08 10° N 17:06:25 83° W 17:12:38 10° S
Cosmos 1025 Rocket 3.7 17:10:06 10° NNW 17:14:19 60° W 17:18:31 10° S
Cosmos 1544 3.0 17:11:03 10° S 17:14:37 65° E 17:18:13 10° NNE
Okean 1 Rocket 3.1 17:12:29 10° S 17:16:47 62° E 17:21:07 10° NNE
SKYMED 2 3.9 17:14:28 10° N 17:18:48 72° WNW 17:23:08 10° SSW
Cosmos 2219 Rocket 3.4 17:15:26 10° NW 17:20:46 46° WSW 17:26:05 10° S
Cosmos 2341 Rocket 4.2 17:15:55 10° N 17:22:01 52° ENE 17:28:04 10° SSE
Meteor 1-12 Rocket 4.3 17:18:53 10° S 17:24:35 89° W 17:30:16 10° NNE
SL-16 R/B 2.8 17:19:46 10° NNW 17:25:09 41° NE 17:30:30 10° ESE
NOSS 0 Rocket 4.3 17:20:53 10° NW 17:27:03 69° WSW 17:33:14 10° SSE
Cosmos 1707 2.7 17:25:18 10° N 17:29:14 80° E 17:33:09 10° SSE
GEOS 3 Rocket 3.7 17:25:18 10° ESE 17:30:20 61° NE 17:35:24 10° NW
Meteor 2-15 Rocket 4.5 17:24:53 10° S 17:31:02 87° ESE 17:37:15 10° N
Cosmos 2218 Rocket 4.5 17:28:00 10° N 17:34:01 41° ENE 17:39:56 10° SE
Cosmos 2154 Rocket 4.1 17:29:40 10° N 17:35:54 82° W 17:42:07 10° S
NOAA 11 4.2 17:31:55 10° SSE 17:37:25 90° NE 17:42:56 10° NNW
Meteor 1-4 Rocket 2.5 17:35:37 10° N 17:39:07 56° ENE 17:42:33 10° SSE
SL-8 Rocket 4.2 17:33:36 10° N 17:39:38 51° ENE 17:45:36 10° SSE
Cosmos 1371 Rocket 4.1 17:35:38 10° S 17:40:52 60° ESE 17:46:10 10° NNE
Cosmos 2082 4.4 17:37:30 10° SSE 17:42:24 30° ESE 17:47:18 10° NE
ARGOS 3.9 17:39:06 10° SE 17:43:54 35° ENE 17:48:44 10° N
SPOT 3 Rocket 3.9 17:39:37 10° SE 17:44:29 45° ENE 17:49:24 10° N
Meteor 2-5 Rocket 4.0 17:38:51 10° N 17:44:35 52° ENE 17:50:20 10° SSE
YAOGAN 1 4.2 17:40:48 10° SSW 17:44:50 38° W 17:48:54 10° NNW
GP-B 3.5 17:41:08 10° N 17:45:34 69° W 17:49:58 10° SSW
IRS-1A Rocket 4.3 17:42:11 10° SSE 17:47:51 87° WSW 17:53:28 10° NNW
Cosmos 1892 Rocket 3.5 17:43:28 10° N 17:47:55 69° ENE 17:52:18 10° SSE
RESURS DK-1 3.5 17:44:32 10° NNW 17:48:11 28° NE 17:50:26 18° E
Cosmos 676 Rocket 4.0 17:43:42 10° NNW 17:48:58 70° ENE 17:54:10 10° SSE
Cosmos 1023 Rocket 4.4 17:43:51 10° NNW 17:49:02 86° ENE 17:54:08 10° SSE
Resurs 01 Rocket 3.0 17:48:55 16° E 17:50:54 22° ENE 17:54:19 10° N
Cosmos 1452 Rocket 4.4 17:47:25 10° SSE 17:51:39 25° E 17:55:53 10° NE
CZ-2C R/B 4.2 17:49:47 16° ESE 17:53:11 29° ENE 17:57:59 10° N
FREGAT/IRIS 2.3 17:52:23 10° SSE 17:55:12 78° ENE 17:58:01 10° N
Cosmos 2227 Rocket 2.3 17:50:37 10° S 17:56:08 55° ESE 18:01:40 10° NE
CZ-2C R/B 3.8 17:55:41 10° NNE 18:00:00 46° E 18:04:16 10° S
BREEZE-M DEB (TANK) 3.5 17:56:33 10° W 18:00:38 83° N 18:07:35 17° E
Cosmos 2084 Rocket 3.5 17:57:04 10° SSW 18:01:28 65° SE 18:05:54 10° NE
ADEOS Rocket 3.9 17:55:36 10° NNE 18:02:33 40° E 18:09:43 10° SSE
Cosmos 2219 3.3 17:57:36 10° SSW 18:03:22 85° WNW 18:09:09 10° NNE
CZ-4C R/B 4.2 17:59:57 10° NW 18:05:07 26° N 18:10:59 10° ENE
Cosmos 2297 Rocket 2.1 18:00:29 10° SSW 18:06:06 68° ESE 18:11:44 10° NNE
SJ-11-01 4.2 18:02:00 10° SSE 18:06:45 84° ENE 18:11:32 10° NNW
SJ-6B 2.8 18:05:30 12° SSE 18:09:16 70° ENE 18:13:18 10° N
Cosmos 1766 3.6 18:08:21 10° SSE 18:12:04 43° E 18:15:47 10° NNE
H-2A R/B 2.1 18:09:16 16° SE 18:13:08 57° ENE 18:18:09 10° N
Okean 1-7 Rocket 4.0 18:09:28 10° NNW 18:13:54 66° W 18:18:20 10° S
SL-8 R/B 3.8 18:14:31 10° W 18:19:18 68° S 18:21:34 30° ESE
Ariane Rocket 4.4 18:16:58 10° SSW 18:21:43 40° W 18:26:30 10° NNW
Cosmos 1850 Rocket 4.1 18:16:56 10° NNW 18:22:03 55° ENE 18:24:35 28° SE
SL-08 RB Rocket 4.0 18:20:48 28° SE 18:22:54 48° ENE 18:27:24 10° N
Cosmos 1943 4.2 18:18:54 10° NNW 18:23:56 30° NE 18:26:02 24° E
Cosmos 405 Rocket 3.0 18:21:10 10° SSW 18:24:51 64° WNW 18:28:35 10° N
USA 234 3.8 18:18:36 10° ENE 18:25:00 57° NNW 18:31:25 10° W
ASTEX 1 3.8 18:23:01 10° N 18:27:52 65° W 18:32:42 10° SSW
Cosmos 1455 Rocket 3.0 18:23:45 10° S 18:28:12 88° W 18:32:42 10° N
Cosmos 1544 Rocket 3.5 18:23:45 10° S 18:28:12 77° E 18:32:41 10° NNE
Cosmos 1674 2.5 18:25:37 10° N 18:29:22 89° ESE 18:31:14 28° S
Lacrosse 5 rocket 0.9 18:27:10 10° SW 18:30:50 87° SE 18:32:25 33° ENE
Cosmos 2237 Rocket 3.9 18:30:22 10° NW 18:35:20 31° WSW 18:40:17 10° SSW
USA 186 2.9 18:33:12 14° S 18:35:59 46° W 18:39:17 10° NNW
Cosmos 1437 Rocket 3.0 18:33:43 10° NNW 18:37:29 63° W 18:39:44 22° S
Cosmos 2056 Rocket 4.1 18:34:00 10° SW 18:39:22 60° WNW 18:44:43 10° NNE
ISS -4.0 18:37:07 10° WSW 18:40:27 86° SSE 18:40:31 84° ESE
Cosmos 1420 Rocket 3.9 18:35:49 10° SSW 18:41:06 73° ESE 18:46:27 10° NNE
ERS-1 Rocket 4.4 18:40:57 21° ENE 18:41:06 21° ENE 18:44:46 10° N
ERBS 3.7 18:39:23 10° WNW 18:42:23 29° SW 18:43:05 27° SSW
Cosmos 1626 Rocket 3.4 18:40:53 10° N 18:45:13 87° W 18:47:01 35° S
Terra 3.9 18:46:49 13° NE 18:46:49 13° NE 18:48:35 10° NNE
SL-24 R/B 4.3 18:46:10 41° SE 18:47:48 71° ENE 18:53:03 10° N
Meteor 1-24 Rocket 4.0 18:43:36 10° NNW 18:49:26 75° W 18:54:22 16° S
Cosmos 1825 Rocket 4.3 18:48:27 10° N 18:51:54 35° NE 18:51:54 35° NE
Cosmos 1741 Rocket 4.0 18:48:52 10° NNW 18:54:14 88° WSW 18:56:13 40° SSE
Spot 2 Rocket 3.6 18:57:28 50° E 18:58:05 53° ENE 19:03:00 10° N
Cosmos 1805 3.7 18:54:23 10° SSW 18:58:14 61° WNW 19:02:07 10° N
CZ-2C R/B 3.8 18:58:45 10° NNE 19:02:08 28° ENE 19:02:08 28° ENE
Cosmos 1758 Rocket 4.0 18:59:58 10° N 19:03:35 47° NE 19:03:35 47° NE
Cosmos 1603 3.7 18:59:31 10° NNW 19:05:12 67° ENE 19:06:20 54° ESE
Cosmos 1602 Rocket 3.8 19:03:21 10° NNW 19:07:40 64° W 19:08:45 46° SSW
Cosmos 1626 2.9 19:04:52 10° N 19:07:34 45° N 19:07:34 45° N
SL-16 R/B 3.2 19:03:59 10° NW 19:09:18 42° WSW 19:12:43 21° SSW
Resurs 1-3 4.0 19:08:40 41° SSW 19:09:59 59° WSW 19:14:21 10° NNW
MetOp-B 4.1 19:10:04 58° ESE 19:10:42 64° ENE 19:16:01 10° N
Lacrosse 5 3.8 19:07:18 10° SSW 19:08:27 16° SSW 19:08:27 16° SSW
SPOT 1/Viking Rocket 4.3 19:13:23 36° NE 19:13:23 36° NE 19:17:42 10° N
Nadezhda 3 Rocket 3.9 19:11:03 44° SSE 19:13:01 67° E 19:19:13 10° NNE
Cosmos 1605 Rocket 4.5 19:16:04 10° N 19:22:08 43° ENE 19:22:09 43° ENE
Cosmos 1733 4.0 19:23:18 51° NW 19:23:18 51° NW 19:26:43 10° N
ARGOS 4.2 19:20:36 19° SSW 19:24:04 42° W 19:29:12 10° NNW
Cosmos 1821 Rocket 3.8 19:18:33 10° N 19:24:45 90° WSW 19:26:17 54° S
Cosmos 2082 4.4 19:20:36 10° SW 19:26:13 55° NW 19:31:52 10° NNE
RESURS DK-1 3.4 19:22:26 10° NW 19:26:20 40° WSW 19:26:21 40° WSW
Resurs 01 Rocket 2.2 19:26:30 49° SW 19:27:04 52° W 19:31:27 10° NNW
DMSP B5D2-2 4.0 19:23:10 10° NNE 19:28:18 75° ENE 19:28:18 75° ENE
Cosmos 2239 Rocket 4.4 19:25:03 10° N 19:31:21 89° W 19:32:40 59° S
Cosmos 1535 Rocket 4.4 19:25:08 10° N 19:31:32 71° ENE 19:32:10 66° ESE
CZ-2C R/B 3.7 19:30:52 37° SSW 19:32:44 54° W 19:38:17 10° NNW
Cosmos 1452 Rocket 4.1 19:28:16 10° SW 19:33:26 55° WNW 19:38:36 10° NNE
Cosmos 2227 Rocket 3.8 19:35:23 10° WSW 19:40:29 33° NW 19:45:36 10° NNE
ADEOS Rocket 4.1 19:41:00 10° N 19:48:12 57° WNW 19:55:45 10° SW
Cosmos 2297 Rocket 4.1 19:45:48 10° WSW 19:50:38 28° NW 19:55:31 10° NNE
H-2A R/B 4.1 19:49:53 13° SW 19:52:58 22° W 19:56:55 10° NW
CZ-4C R/B 3.5 19:49:03 10° NW 19:55:24 42° NNE 19:56:54 38° ENE
Cosmos 2263 Rocket 4.1 20:01:44 19° NE 20:01:44 19° NE 20:03:14 10° NE
USA 234 3.9 20:05:28 38° NE 20:07:29 50° N 20:13:47 10° WNW
Cosmos 1943 3.6 20:02:46 10° NW 20:07:51 59° W 20:07:51 59° W
Lacrosse 5 rocket 3.8 20:06:53 10° WNW 20:08:05 18° WNW 20:08:05 18° WNW
SPOT 5 4.0 20:14:48 42° N 20:14:48 42° N 20:18:11 10° NNW
ERS-1 Rocket 4.0 20:20:57 44° NNW 20:20:57 44° NNW 20:24:27 10° NNW
Cosmos 1934 Rocket 4.3 20:14:07 10° NNW 20:20:06 56° W 20:20:14 56° W
Terra 3.4 20:25:43 30° N 20:25:43 30° N 20:28:10 10° N
CZ-2C R/B 3.7 20:38:54 10° N 20:43:38 45° NW 20:43:38 45° NW
Cosmos 2082 Rocket 4.1 21:18:30 10° NNW 21:21:50 24° NNE 21:21:50 24° NNE
Cosmos 2263 Rocket 4.0 21:43:23 28° NNW 21:43:23 28° NNW 21:46:58 10° NNE
CZ-4C R/B 3.6 21:37:31 10° NW 21:42:04 45° NW 21:42:04 45° NW
USA 234 4.3 21:52:48 39° NW 21:52:48 39° NW 21:56:42 10° WNW
Cosmos 2082 Rocket 4.5 23:02:17 10° NNW 23:03:40 18° NNW 23:03:40 18° NNW
SL-16 R/B 3.7 23:28:50 38° NNE 23:28:50 38° NNE 23:33:19 10° N
CZ-2D R/B 4.2 23:39:55 10° NE 23:42:12 21° NE 23:42:12 21° NE
Cosmos 2278 Rocket 3.9 23:54:10 29° N 23:54:10 29° N 23:57:15 10° NNE
Cosmos 1943 Rocket 4.2 23:54:01 21° ENE 23:54:01 21° ENE 23:56:28 10° NE
